Weather History for TNCB - December, 2011

Change the Weather History Date:

Friday, December 9, 2011

  Actual Average Record
Temperature  
Mean Temperature 84 °F -  
Max Temperature 89 °F 85 °F 88 °F (2012)
Min Temperature 78 °F 77 °F 73 °F (2007)
Cooling Degree Days 18    
Growing Degree Days 34 (Base 50)    
Moisture  
Dew Point 74 °F    
Average Humidity 75    
Maximum Humidity 84    
Minimum Humidity 59    
Precipitation  
Precipitation 0.00 in - - ()
Sea Level Pressure  
Sea Level Pressure 29.87 in    
Wind  
Wind Speed 8 mph ()    
Max Wind Speed 17 mph    
Max Gust Speed -    
Visibility 7.9 miles    
Events      
Averages and records for this station are not official NWS values.
T = Trace of Precipitation, MM = Missing Value Source: Averaged Metar Reports

Daily Weather History Graph

Daily Weather History Graph

Search for Another Location

Airport or City:

Trip Planner

Search our weather history database for the weather conditions in past years. The results will help you decide how hot, cold, wet, or windy it might be!

Date:

Astronomy

Dec. 09, 2011 Rise Set
Actual Time 6:42 AM AST 6:08 PM AST
Civil Twilight 6:19 AM AST 6:31 PM AST
Nautical Twilight 5:53 AM AST 6:57 PM AST
Astronomical Twilight 5:26 AM AST 7:24 PM AST
Moon 5:30 PM AST (12/9) 5:46 AM AST (12/9)
Length of Visible Light 12h 11m
Length of Day
11h 26m
Waxing Gibbous, 99% of the Moon is Illuminated
Dec 9
Waxing Gibbous
Dec 10
Full
Dec 17
Last Quarter
Dec 24
New
Jan 1
First Quarter

Hourly Weather History & Observations

Time (AST) Temp. Heat Index Dew Point Humidity Pressure Visibility Wind Dir Wind Speed Gust Speed Precip Events Conditions
12:00 AM 80.6 °F 86.2 °F 75.2 °F 84% 29.89 in - North - - N/A   Unknown
1:00 AM 80.6 °F 86.2 °F 75.2 °F 84% 29.86 in - North - - N/A   Unknown
2:00 AM 80 °F - 75 °F 79%  in - Calm Calm - -  
2:00 AM 80.6 °F 86.2 °F 75.2 °F 84% 29.86 in - North - - N/A   Unknown
3:00 AM 80.6 °F 85.4 °F 73.4 °F 79% 29.83 in - North - - N/A   Unknown
4:00 AM 80.6 °F 86.2 °F 75.2 °F 84% 29.83 in - North - - N/A   Unknown
6:00 AM 80.6 °F 85.4 °F 73.4 °F 79% 29.86 in - North - - N/A   Unknown
7:00 AM 78.8 °F - 73.4 °F 83% 29.86 in - North - - N/A   Unknown
8:00 AM 84.2 °F 90.9 °F 73.4 °F 70% 29.89 in 6.2 mi East 8.1 mph - N/A   Partly Cloudy
9:00 AM 84.2 °F 90.9 °F 73.4 °F 70% 29.89 in 6.2 mi East 13.8 mph - N/A   Partly Cloudy
10:00 AM 86.0 °F 93.4 °F 73.4 °F 66% 29.89 in 6.2 mi East 13.8 mph - N/A   Partly Cloudy
11:00 AM 87 °F - 75 °F 60% 29.92 in 25 mi East 12.7 mph - -   Scattered Clouds
11:00 AM 86.0 °F 95.1 °F 75.2 °F 70% 29.89 in 6.2 mi East 12.7 mph - N/A   Partly Cloudy
12:00 PM 86.0 °F 95.1 °F 75.2 °F 70% 29.89 in 6.2 mi East 12.7 mph - N/A   Partly Cloudy
1:00 PM 86.0 °F 95.1 °F 75.2 °F 70% 29.89 in 6.2 mi East 13.8 mph - N/A   Partly Cloudy
2:00 PM - - - N/A% 29.86 in - North - - N/A   Unknown
3:00 PM 86.0 °F 95.1 °F 75.2 °F 70% 29.83 in 6.2 mi East 17.3 mph - N/A   Mostly Cloudy
4:00 PM 84.2 °F 92.3 °F 75.2 °F 74% 29.83 in - North - - N/A   Unknown
5:00 PM 83 °F - 71 °F 59% 29.84 in 19 mi East 11.5 mph - -   Scattered Clouds
5:00 PM 82.4 °F 89.5 °F 75.2 °F 79% 29.83 in 6.2 mi East 10.4 mph - N/A   Scattered Clouds
6:00 PM 82.4 °F 89.5 °F 75.2 °F 79% 29.83 in 6.2 mi East 8.1 mph - N/A   Partly Cloudy
8:00 PM 81 °F - 70 °F 61% 29.86 in 16 mi East 8.1 mph - -   Scattered Clouds
8:00 PM 80.6 °F 85.4 °F 73.4 °F 79% 29.86 in 6.2 mi East 6.9 mph - N/A   Partly Cloudy
9:00 PM 80.6 °F 86.2 °F 75.2 °F 84% 29.86 in - North - - N/A   Unknown
10:00 PM 80.6 °F 86.2 °F 75.2 °F 84% 29.89 in 6.2 mi North - - N/A   Partly Cloudy
11:00 PM 78.8 °F - 73.4 °F 83% 29.89 in - North - - N/A   Unknown